This is the latest recevied weather packets stored in our database for station/object SR5MRF. If no packets are shown the sender has not sent any weather packets the latest 10 day(s).
| Time | Temp. | Humidity | Pressure | Rain* | Wind** | Luminosity | Snow |
|---|---|---|---|---|---|---|---|
| 1778050600 | 23.89° C | 46% | 1003.1 hPa | 0 mm | - | - | - |
| 1778050179 | 23.33° C | 47% | 1003 hPa | 0 mm | - | - | - |
| 1778050121 | 23.33° C | 47% | 1002.9 hPa | 0 mm | - | - | - |
| 1778049759 | 22.78° C | 48% | 1002.8 hPa | 0 mm | - | - | - |
| 1778049520 | 22.78° C | 48% | 1003.1 hPa | 0 mm | - | - | - |
| 1778049339 | 22.78° C | 48% | 1003.1 hPa | 0 mm | - | - | - |
| 1778048920 | 22.78° C | 49% | 1003.3 hPa | 0 mm | - | - | - |
| 1778048499 | 22.22° C | 52% | 1003.2 hPa | 0 mm | - | - | - |
| 1778048320 | 22.22° C | 52% | 1003.1 hPa | 0 mm | - | - | - |
| 1778048079 | 21.67° C | 53% | 1003.3 hPa | 0 mm | - | - | - |
| 1778047720 | 20.56° C | 56% | 1003.4 hPa | 0 mm | - | - | - |
| 1778047659 | 20.56° C | 56% | 1003.4 hPa | 0 mm | - | - | - |
| 1778047240 | 19.44° C | 60% | 1003.3 hPa | 0 mm | - | - | - |
| 1778047120 | 18.89° C | 61% | 1003.3 hPa | 0 mm | - | - | - |
| 1778046819 | 18.33° C | 63% | 1003.3 hPa | 0 mm | - | - | - |
| 1778046520 | 17.22° C | 66% | 1003.3 hPa | 0 mm | - | - | - |
| 1778046399 | 16.67° C | 67% | 1003.3 hPa | 0 mm | - | - | - |
| 1778045980 | 15.56° C | 71% | 1003.3 hPa | 0 mm | - | - | - |
| 1778045920 | 14.44° C | 72% | 1003.3 hPa | 0 mm | - | - | - |
| 1778045560 | 14.44° C | 73% | 1003.3 hPa | 0 mm | - | - | - |
| 1778045320 | 13.89° C | 74% | 1003.4 hPa | 0 mm | - | - | - |
| 1778045140 | 13.89° C | 74% | 1003.6 hPa | 0 mm | - | - | - |
| 1778044720 | 13.33° C | 75% | 1003.6 hPa | 0 mm | - | - | - |
| 1778044300 | 13.33° C | 76% | 1003.5 hPa | 0 mm | - | - | - |
| 1778044120 | 13.33° C | 77% | 1003.5 hPa | 0 mm | - | - | - |
* Rain latest hour (hover to see other rain measurements)
** Current wind speed in m/s (hover to see current wind gust speed)